Satellite: FAST1-2
Catalog number: 37227
Epoch time:      11011.27978720
Element set:    0051
Inclination:      071.9718 deg
RA of node:       025.1673 deg
Eccentricity:    0.0018572
Arg of perigee:   217.0654 deg
Mean anomaly:     142.9207 deg
Mean motion:   14.76383437 rev/day
Decay rate:        3.9e-07 rev/day^2
Epoch rev:           00770
Checksum:              289

/EX
SB KEPS @ AMSAT  $ORB11013.W
Orbital Elements  11013.WEATHER

HR AMSAT ORBITAL ELEMENTS FOR WEATHER SATELLITES
FROM WA5QGD FORT WORTH,TX January 13, 2011
Send Subscribe/unsubscribe to KEPS at http://www.amsat.org/mailman/listinfo/kep
BID: ORB11013.W
TO ALL RADIO AMATEURS BT

Satellite: NOAA-10
Catalog number: 16969
Epoch time:      11012.59942744
Element set:    0356
Inclination:      098.6369 deg
RA of node:       044.3744 deg
Eccentricity:    0.0011912
Arg of perigee:   323.4754 deg
Mean anomaly:     036.5598 deg
Mean motion:   14.27440607 rev/day
Decay rate:        1.0e-08 rev/day^2
Epoch rev:           26545
Checksum:              310

Satellite: NOAA-11
Catalog number: 19531
Epoch time:      11012.76774404
Element set:    0360
Inclination:      098.7591 deg
RA of node:       103.1452 deg
Eccentricity:    0.0010442
Arg of perigee:   273.0974 deg
Mean anomaly:     086.9008 deg
Mean motion:   14.14900788 rev/day
Decay rate:      -1.46e-06 rev/day^2
Epoch rev:           15077
Checksum:              287

Satellite: NOAA-12
Catalog number: 21263
Epoch time:      11012.70619247
Element set:    0853
Inclination:      098.7582 deg
RA of node:       030.7667 deg
Eccentricity:    0.0011615
Arg of perigee:   280.3612 deg
Mean anomaly:     079.6255 deg
Mean motion:   14.25678245 rev/day
Decay rate:        2.9e-07 rev/day^2
Epoch rev:           02225
Checksum:              289

Satellite: MET-3/5
Catalog number: 21655
Epoch time:      11013.76566993
Element set:      12
Inclination:      082.5568 deg
RA of node:       159.8668 deg
Eccentricity:    0.0013527
Arg of perigee:   178.4933 deg
Mean anomaly:     181.6264 deg
Mean motion:   13.17024292 rev/day
Decay rate:        5.1e-07 rev/day^2
Epoch rev:           93339
Checksum:              320

Satellite: MET-2/21
Catalog number: 22782
Epoch time:      11012.78341468
Element set:     989
Inclination:      082.5466 deg
RA of node:       086.1827 deg
Eccentricity:    0.0022428
Arg of perigee:   170.8274 deg
Mean anomaly:     189.3306 deg
Mean motion:   13.83653219 rev/day
Decay rate:       -3.2e-07 rev/day^2
Epoch rev:           87706
Checksum:              324

Satellite: OKEAN-4
Catalog number: 23317
Epoch time:      11012.77466892
Element set:    0447
Inclination:      082.5407 deg
RA of node:       158.2289 deg
Eccentricity:    0.0020438
Arg of perigee:   271.9020 deg
Mean anomaly:     087.9855 deg
Mean motion:   14.82923407 rev/day
Decay rate:       3.60e-06 rev/day^2
Epoch rev:           87751
Checksum:              317

Satellite: NOAA-14
Catalog number: 23455
Epoch time:      11012.69503253
Element set:    0341
Inclination:      098.8632 deg
RA of node:       096.8213 deg
Eccentricity:    0.0009625
Arg of perigee:   006.4188 deg
Mean anomaly:     353.7118 deg
Mean motion:   14.13804507 rev/day
Decay rate:       -1.0e-08 rev/day^2
Epoch rev:           82710
Checksum:              277

Satellite: NOAA-15
Catalog number: 25338
Epoch time:      11012.97825525
Element set:    0670
Inclination:      098.6414 deg
RA of node:       001.3732 deg
Eccentricity:    0.0010493
Arg of perigee:   179.4824 deg
Mean anomaly:     180.6353 deg
Mean motion:   14.24877783 rev/day
Decay rate:        8.9e-07 rev/day^2
Epoch rev:           65862
Checksum:              320

Satellite: RESURS
Catalog number: 25394
Epoch time:      11012.56572064
Element set:    0700
Inclination:      098.2987 deg
RA of node:       024.1676 deg
Eccentricity:    0.0001617
Arg of perigee:   004.5977 deg
Mean anomaly:     355.5222 deg
Mean motion:   14.24221300 rev/day
Decay rate:       -1.0e-07 rev/day^2
Epoch rev:           65015
Checksum:              258

Satellite: FENGYUN1
Catalog number: 25730
Epoch time:      11013.52997023
Element set:     232
Inclination:      098.8044 deg
RA of node:       338.2369 deg
Eccentricity:    0.0022608
Arg of perigee:   026.1112 deg
Mean anomaly:     334.1233 deg
Mean motion:   14.08490347 rev/day
Decay rate:       -9.3e-07 rev/day^2
Epoch rev:           60129
Checksum:              266

Satellite: OKEAN-0
Catalog number: 25860
Epoch time:      11012.81668572
Element set:    0202
Inclination:      097.8627 deg
RA of node:       343.7401 deg
Eccentricity:    0.0001753
Arg of perigee:   093.6402 deg
Mean anomaly:     266.5003 deg
Mean motion:   14.73700756 rev/day
Decay rate:        9.0e-07 rev/day^2
Epoch rev:           61777
Checksum:              284

Satellite: NOAA-16
Catalog number: 26536
Epoch time:      11013.31294184
Element set:     148
Inclination:      099.1572 deg
RA of node:       040.5929 deg
Eccentricity:    0.0011241
Arg of perigee:   106.6821 deg
Mean anomaly:     253.5564 deg
Mean motion:   14.12592997 rev/day
Decay rate:      -1.30e-06 rev/day^2
Epoch rev:           53149
Checksum:              291

